Location: Windsor
(43.2292°N, 89.3015°W)
Time: 09:23:13
(UTC+00:00)

BEESAT - Pass Details

Date: 05 July 2022
Orbit: 700 x 706 km, 98.6° (Epoch: 13 August)

Event Time Altitude Azimuth Distance (km) Brightness Sun altitude
Rises 03:21:40 0° 3° (N) 3,105 ? -14.4°
Reaches altitude 10° 03:24:11 10° 351° (N) 2,183 ? -14.7°
Maximum altitude 03:28:12 28° 294° (WNW) 1,322 ? -15.1°
Drops below altitude 10° 03:32:13 10° 237° (WSW) 2,173 ? -15.6°
Sets 03:34:43 0° 225° (SW) 3,088 ? -15.8°
